STARLINK-1365, 45590

Orbit data source: Space-Track

STARLINK-1365, 45590 is a payload satellite owned by SpaceX/Seattle (US) in LEO that was launched on Wed, 22 Apr 2020 UTC via an FALCON 9 launch vehicle from the Air Force Eastern Test Range (AFETR). Payload-class satellites include a variety of spacecraft equipped with specific instruments for various scientific and technological missions. These include communications satellites like Starlink; space stations such as the ISS; scientific satellites like the Hubble; Earth observation satellites from companies like Planet Labs, Umbra, and HawkEye 360; GPS; miniature CubeSats for education and research; and military/defense satellites.

Loading next visibility...
Identifier
45590, 2020-025BM
Orbit
LEO
Country
Flag of USUS
Related business
Manufacturer
SpaceX/Seattle
Mission
Operational Commercial Communications
Bus & Motor
STARLINK, Unknown motor
Mass
260 kg wet, ~248 kg dry
Launch date (UTC)
2020-04-22 (5 years ago)
Launch vehicle
FALCON 9
Launch site
Air Force Eastern Test Range (AFETR)
Object type
Payload
Rocket body
Debris
Shape & HBR
Box + 1 Pan, 10.1 m
Radar Cross Section
13.562 m², Large (>1 m²)

Expand to show TLE details & history
Last TLE update: 1 day ago

TLE from 1 day ago
0 STARLINK-1365
1 45590U 20025BM  25288.60426303  .00001907  00000-0  14692-3 0  9993
2 45590  53.0554  37.9292 0001239  75.4380 284.6747 15.06396533303231
Epoch: 2025-10-15T14:30Z
TLE epoch observation values (Epoch: 2025-10-15T14:30:08.325Z)
Latitude
0.00001°
Longitude
156.01857°
Altitude
547.884 km
Speed
7.589 km/s
True Right ascension
02h 31m 43s
True Declination
0° 00' 00"
Sunlit
Object was in full shadow at epoch
Visualization orbit readout
Latitude
Unknown
Longitude
Unknown
Altitude
Unknown
Speed
Unknown
Apparent Right ascension
Unknown
Apparent Declination
Unknown
Sunlit
N/A
Visualization observer readout
Local Sidereal Time
09:11:27
Azimuth
Unknown
Elevation
Unknown
Doppler factor
Unknown
Orbital elements
Apogee altitude
548.351 km
Perigee altitude
546.635 km
Semi-major axis
6,925.63 km
Eccentricity
0.00012
Inclination
53.0554°
RAAN
37.9292°
Arg. of periapsis
75.438°
True anomaly
284.66096°
Mean anomaly
284.6747°
Eccentric anomaly
284.66783°
Mean motion
3.76577 °/min
Orbital period
95.6 mins
BSTAR
0.00014692
Loading maneuver chart data...
Computing Atmospheric mass density...

Documentation

Showing up to 5 results
|